Regional Weather Roundup
Issued by NWS

Home | Current Version | Previous Version | Text Only | Print | Product List | Glossary On
Versions: 1 2 3 4 5 6 7 8 9 10 11 12 13 14 15 16 17 18 19 20 21 22 23 24 25 26 27 28 29 30 31 32 33 34 35 36 37 38 39 40 41 42 43 44 45 46 47 48 49 50
000
ASUS43 KOAX 201402
RWRNE

WEATHER ROUNDUP FOR NEBRASKA
NATIONAL WEATHER SERVICE OMAHA NE
900 AM CDT MON OCT 20 2014

NOTES: SATELLITE DATA IS BEING USED TO AUGMENT CLOUD COVER ABOVE
       12000 FEET.
       "FAIR" INDICATES FEW OR NO CLOUDS BELOW 12,000 FEET WITH NO
       SIGNIFICANT WEATHER AND/OR OBSTRUCTIONS TO VISIBILITY.

  * THESE STATIONS DO NOT REPORT WEATHER SUCH AS RAIN...SNOW OR FOG.

NEZ001>004-019>022-054>056-201500-
NEBRASKA PANHANDLE

CITY           SKY/WX    TMP DP  RH WIND       PRES   REMARKS
SCOTTSBLUFF    CLEAR     39  36  89 E3        30.12R
ALLIANCE       CLEAR     33  30  88 W3        30.12R
CHADRON        CLEAR     34  32  92 W5        30.07R WCI  30
KIMBALL        CLEAR     45  38  77 SW6       30.13S
SIDNEY         CLEAR     43  38  82 SW7       30.14R
$$

NEZ057>060-069>072-079>082-201500-
SOUTHWEST NEBRASKA

CITY           SKY/WX    TMP DP  RH WIND       PRES   REMARKS
NORTH PLATTE   PTCLDY    37  34  89 W3        30.13R
IMPERIAL       CLEAR     41  35  79 W3        30.14R
LEXINGTON      MOSUNNY   42  39  89 NW5       30.13R
MCCOOK         SUNNY     43  40  89 W6        30.13R
OGALLALA       CLEAR     36  34  93 W5        30.14R WCI  32
$$

NEZ005>010-023>029-035>040-094-201500-
NORTH CENTRAL NEBRASKA

CITY           SKY/WX    TMP DP  RH WIND       PRES   REMARKS
VALENTINE      PTCLDY    37  33  85 SW3       30.12R
AINSWORTH      CLEAR     40  37  87 CALM      30.12R
BROKEN BOW     SUNNY     41  36  82 CALM      30.12R
O`NEILL        MOSUNNY   43  40  88 N3        30.12R
ORD            SUNNY     43  38  82 CALM      30.11R
THEDFORD       PTCLDY    40  37  90 W3        30.14R
$$

NEZ041-046>049-061>064-073>077-083>087-201500-
SOUTH CENTRAL NEBRASKA

CITY           SKY/WX    TMP DP  RH WIND       PRES   REMARKS
GRAND ISLAND   SUNNY     45  40  82 W3        30.11R
AURORA         SUNNY     47  42  82 N5        30.10R
HASTINGS       SUNNY     48  41  76 N8        30.10R
HEBRON         SUNNY     48  42  80 CALM      30.09R
HOLDREGE       SUNNY     45  40  83 CALM      30.12R
KEARNEY *      SUNNY     45  37  76 NW8       30.12R
YORK           SUNNY     46  41  81 N6        30.10R
$$

NEZ011>018-030>034-042>045-201500-
NORTHEAST NEBRASKA

CITY           SKY/WX    TMP DP  RH WIND       PRES   REMARKS
NORFOLK        SUNNY     45  40  82 W3        30.11R
ALBION         SUNNY     42  37  84 NW3       30.11R
BLAIR          SUNNY     52  43  73 N7        30.08R
COLUMBUS *     SUNNY     46  39  76 N3        30.11R
FREMONT        SUNNY     48  44  85 W3        30.10R
TEKAMAH        SUNNY     48  43  82 CALM      30.09R
WAYNE          SUNNY     40  38  90 CALM      30.12R
$$

NEZ050>053-065>068-078-088>093-201500-
SOUTHEAST NEBRASKA

CITY           SKY/WX    TMP DP  RH WIND       PRES   REMARKS
LINCOLN        SUNNY     47  42  83 N6        30.11R
OMAHA EPPLEY   SUNNY     48  43  82 N6        30.09R
BEATRICE       SUNNY     47  45  90 CALM      30.08R
FALLS CITY     SUNNY     52  48  86 NW5       30.05R
NEBRASKA CITY  SUNNY     53  44  73 N6        30.08R
PLATTSMOUTH    SUNNY     50  46  85 CALM      30.08R
$$

NEZ044-045-051>053-067-201500-
OMAHA AREA

CITY           SKY/WX    TMP DP  RH WIND       PRES   REMARKS
OMAHA EPPLEY   SUNNY     48  43  82 N6        30.09R
BLAIR          SUNNY     52  43  73 N7        30.08R
FREMONT        SUNNY     48  44  85 W3        30.10R
MILLARD        SUNNY     50  45  82 NW3       30.08R
OFFUTT AFB     SUNNY     48  48 100 NW2       30.08R
PLATTSMOUTH    SUNNY     50  46  85 CALM      30.08R
WAHOO          FAIR      50  41  71 NW6       30.09R
$$


USA.gov is the U.S. government's official web portal to all federal, state and local government web resources and services.